User: anonymous   Login
Location: Tyler Bend Campground
(35.9875°N, 92.7606°W)
Time: 05:06:45
(UTC-05:00)
Language:

Iridium 39 - Orbit

View from above orbital plane
View from above orbital plane
View from above satellite
View from above satellite

Ground track
Ground track

The orbit data is extracted from the following two-line orbital elements,

1 25042U 97069D   15184.43332449  .00000183  00000-0  58342-4 0  9993
2 25042 086.3980 320.9323 0002361 094.3680 265.7785 14.34216949923864
Epoch (UTC): 03 July 2015 10:23:59
Eccentricity: 0.0002361
inclination: 86.3980°
perigee height: 776 km
apogee height: 779 km
right ascension of ascending node: 320.9323°
argument of perigee: 94.3680°
revolutions per day: 14.34216949
mean anomaly at epoch: 265.7785°
orbit number at epoch: 92386

The dashed part of the orbit path shows where the satellite is in the earth's shadow,  

DLR